TimeEDT,TemperatureF,Dew PointF,Humidity,Sea Level PressureIn,VisibilityMPH,Wind Direction,Wind SpeedMPH,Gust SpeedMPH,PrecipitationIn,Events,Conditions,WindDirDegrees,DateUTC
12:54 AM,42.1,39.0,89,30.15,10.0,Calm,Calm,-,N/A,,Clear,0,2012-09-16 04:54:00
1:54 AM,39.9,37.9,93,30.14,10.0,Calm,Calm,-,N/A,,Clear,0,2012-09-16 05:54:00
2:54 AM,39.9,37.9,93,30.12,10.0,Calm,Calm,-,N/A,,Clear,0,2012-09-16 06:54:00
3:54 AM,39.9,37.0,89,30.10,10.0,Calm,Calm,-,N/A,,Clear,0,2012-09-16 07:54:00
4:54 AM,42.1,39.9,92,30.09,10.0,Calm,Calm,-,N/A,,Overcast,0,2012-09-16 08:54:00
5:54 AM,46.9,44.1,90,30.06,10.0,South,3.5,-,N/A,,Overcast,170,2012-09-16 09:54:00
6:54 AM,48.0,45.0,89,30.06,10.0,Calm,Calm,-,N/A,,Overcast,0,2012-09-16 10:54:00
7:54 AM,46.9,45.0,93,30.05,10.0,SSE,3.5,-,N/A,,Clear,160,2012-09-16 11:54:00
8:54 AM,54.0,50.0,86,30.04,10.0,South,3.5,-,N/A,,Clear,190,2012-09-16 12:54:00
9:54 AM,61.0,52.0,72,30.04,10.0,SW,8.1,-,N/A,,Clear,230,2012-09-16 13:54:00
10:54 AM,69.1,52.0,54,30.01,10.0,WSW,11.5,-,N/A,,Partly Cloudy,240,2012-09-16 14:54:00
11:54 AM,75.0,50.0,41,30.01,10.0,West,12.7,20.7,N/A,,Partly Cloudy,270,2012-09-16 15:54:00
12:54 PM,75.9,48.9,38,29.99,10.0,WSW,9.2,18.4,N/A,,Clear,250,2012-09-16 16:54:00
1:54 PM,79.0,46.0,31,29.96,10.0,WSW,10.4,19.6,N/A,,Clear,250,2012-09-16 17:54:00
2:54 PM,80.1,46.0,30,29.95,10.0,WSW,11.5,20.7,N/A,,Clear,240,2012-09-16 18:54:00
3:54 PM,80.1,45.0,29,29.94,10.0,WSW,11.5,19.6,N/A,,Clear,240,2012-09-16 19:54:00
4:54 PM,79.0,46.0,31,29.93,10.0,SW,11.5,18.4,N/A,,Clear,230,2012-09-16 20:54:00
5:54 PM,79.0,46.9,32,29.92,10.0,WSW,8.1,-,N/A,,Clear,250,2012-09-16 21:54:00
6:54 PM,75.0,46.0,36,29.93,10.0,WSW,9.2,-,N/A,,Clear,240,2012-09-16 22:54:00
7:54 PM,71.1,46.0,41,29.94,10.0,WSW,3.5,-,N/A,,Clear,240,2012-09-16 23:54:00
8:54 PM,66.0,46.9,50,29.95,10.0,SW,4.6,-,N/A,,Clear,220,2012-09-17 00:54:00
9:54 PM,63.0,48.0,58,29.96,10.0,SW,3.5,-,N/A,,Clear,220,2012-09-17 01:54:00
10:54 PM,62.1,46.9,58,29.96,10.0,SW,4.6,-,N/A,,Clear,220,2012-09-17 02:54:00
11:54 PM,61.0,46.9,60,29.95,10.0,SW,5.8,-,N/A,,Clear,220,2012-09-17 03:54:00